OneWeb SL0398

operational
NORAD ID: 50478 Int'l Des: 2021-132 Owner: ONEWEBN Country: UK Constellation: oneweb
LEOCIRCULARPOLARONEWEB_TYPE

About OneWeb SL0398

Description loading...

Live Position

Loading 3D Globe...

Upcoming Passes

Altitude History

Altitude vs Time

uPlot chart will show altitude changes over time

Two-Line Element Set

1 50478U 21132K 26035.98881633 -.00000289 00000-0 -85122-3 0 9997
2 50478 87.8822 47.3562 0002074 100.0737 260.0625 13.11417782198283
Epoch: Feb 4, 2026 • Age: 11 hours

Current Status

Altitude 1237.6 km
Velocity 7.23 km/s
Sub-Earth Point -47.89°S, 112.22°E
Launch Date Dec 27, 2021
Age 4.1 years
Type internet

Technical Details

Classification Payload
Mass 148.00 kg
Dry Mass 140.00 kg
Total Mass 148.00 kg
Length 1.30 m
Diameter 1.00 m
Span 5.00 m
Shape Trapezoid+2 pan
Manufacturer ONEWUS
Bus Type ARROW
Phase Status In Orbit
Owner/State ONEWEBN/UK

Large Constellations

Loading constellations...